| time (UTC) | temp F | wind direction | speed knots | gust knots | rain 1hr in | rain 24hr in | rain mn in | humidity % | barometer mb |
| 20260505230454 | 76 | 166 | 3.5 | 7.8 | 0.00 | 0.00 | 0.00 | 35 | 1008.7 |
| 20260505225954 | 76 | 175 | 3.5 | 7.0 | 0.00 | 0.00 | 0.00 | 36 | 1008.6 |
| 20260505225454 | 76 | 186 | 3.5 | 7.0 | 0.00 | 0.00 | 0.00 | 36 | 1008.6 |
| 20260505224955 | 76 | 178 | 3.5 | 7.8 | 0.00 | 0.00 | 0.00 | 36 | 1008.7 |
| 20260505224454 | 76 | 166 | 3.5 | 7.8 | 0.00 | 0.00 | 0.00 | 35 | 1008.8 |
| 20260505223956 | 76 | 180 | 3.5 | 6.1 | 0.00 | 0.00 | 0.00 | 35 | 1008.8 |
| 20260505223455 | 77 | 180 | 3.5 | 7.8 | 0.00 | 0.00 | 0.00 | 36 | 1009.0 |
| 20260505222955 | 77 | 190 | 2.6 | 7.8 | 0.00 | 0.00 | 0.00 | 35 | 1009.0 |
| 20260505222454 | 77 | 176 | 2.6 | 7.0 | 0.00 | 0.00 | 0.00 | 35 | 1009.1 |
| 20260505221454 | 77 | 189 | 3.5 | 8.7 | 0.00 | 0.00 | 0.00 | 35 | 1009.0 |
| 20260505220955 | 78 | 194 | 3.5 | 8.7 | 0.00 | 0.00 | 0.00 | 34 | 1009.0 |
| 20260505215946 | 78 | 180 | 4.3 | 7.8 | 0.00 | 0.00 | 0.00 | 33 | 1008.8 |
| 20260505214944 | 79 | 167 | 5.2 | 11.3 | 0.00 | 0.00 | 0.00 | 33 | 1008.7 |
| 20260505214444 | 79 | 190 | 6.1 | 12.2 | 0.00 | 0.00 | 0.00 | 33 | 1008.6 |
| 20260505213945 | 79 | 181 | 6.1 | 12.2 | 0.00 | 0.00 | 0.00 | 33 | 1008.7 |
| 20260505212944 | 79 | 174 | 4.3 | 9.6 | 0.00 | 0.00 | 0.00 | 31 | 1008.6 |
| 20260505212445 | 79 | 197 | 4.3 | 9.6 | 0.00 | 0.00 | 0.00 | 32 | 1008.6 |
| 20260505211945 | 79 | 182 | 5.2 | 11.3 | 0.00 | 0.00 | 0.00 | 32 | 1008.5 |
| 20260505211444 | 79 | 186 | 4.3 | 11.3 | 0.00 | 0.00 | 0.00 | 31 | 1008.5 |
| 20260505210443 | 79 | 169 | 5.2 | 13.0 | 0.00 | 0.00 | 0.00 | 33 | 1008.6 |
| 20260505205944 | 79 | 195 | 5.2 | 13.0 | 0.00 | 0.00 | 0.00 | 33 | 1008.5 |
| 20260505205439 | 79 | 192 | 5.2 | 12.2 | 0.00 | 0.00 | 0.00 | 34 | 1008.5 |
| 20260505204941 | 79 | 158 | 5.2 | 11.3 | 0.00 | 0.00 | 0.00 | 33 | 1008.6 |
| 20260505204440 | 79 | 173 | 4.3 | 11.3 | 0.00 | 0.00 | 0.00 | 34 | 1008.5 |
| 20260505203941 | 79 | 190 | 5.2 | 10.4 | 0.00 | 0.00 | 0.00 | 33 | 1008.5 |
| 20260505202941 | 79 | 143 | 6.1 | 13.9 | 0.00 | 0.00 | 0.00 | 32 | 1008.5 |
| 20260505201941 | 79 | 176 | 5.2 | 10.4 | 0.00 | 0.00 | 0.00 | 34 | 1008.5 |
| 20260505201442 | 79 | 172 | 4.3 | 10.4 | 0.00 | 0.00 | 0.00 | 34 | 1008.5 |
| 20260505200941 | 79 | 165 | 2.6 | 8.7 | 0.00 | 0.00 | 0.00 | 35 | 1008.7 |
| 20260505200441 | 79 | 178 | 3.5 | 8.7 | 0.00 | 0.00 | 0.00 | 37 | 1009.0 |
| 20260505195939 | 79 | 178 | 4.3 | 8.7 | 0.00 | 0.00 | 0.00 | 35 | 1008.8 |
| 20260505195438 | 79 | 207 | 4.3 | 11.3 | 0.00 | 0.00 | 0.00 | 33 | 1009.0 |
| 20260505194937 | 79 | 94 | 5.2 | 11.3 | 0.00 | 0.00 | 0.00 | 35 | 1009.0 |
| 20260505194437 | 79 | 117 | 5.2 | 10.4 | 0.00 | 0.00 | 0.00 | 37 | 1009.0 |
| 20260505193937 | 80 | 188 | 4.3 | 10.4 | 0.00 | 0.00 | 0.00 | 35 | 1008.8 |
| 20260505193438 | 79 | 167 | 4.3 | 8.7 | 0.00 | 0.00 | 0.00 | 35 | 1009.0 |
| 20260505192938 | 79 | 163 | 5.2 | 13.0 | 0.00 | 0.00 | 0.00 | 37 | 1009.2 |
| 20260505192431 | 79 | 173 | 7.0 | 13.0 | 0.00 | 0.00 | 0.00 | 35 | 1009.2 |
| 20260505191929 | 79 | 150 | 6.1 | 10.4 | 0.00 | 0.00 | 0.00 | 34 | 1009.3 |
| 20260505191428 | 79 | 162 | 5.2 | 11.3 | 0.00 | 0.00 | 0.00 | 35 | 1009.3 |
| 20260505190927 | 79 | 175 | 5.2 | 13.9 | 0.00 | 0.00 | 0.00 | 34 | 1009.4 |
| 20260505190429 | 79 | 166 | 6.1 | 13.9 | 0.00 | 0.00 | 0.00 | 33 | 1009.5 |
| 20260505185928 | 79 | 186 | 4.3 | 8.7 | 0.00 | 0.00 | 0.00 | 35 | 1009.4 |
| 20260505185430 | 80 | 208 | 3.5 | 8.7 | 0.00 | 0.00 | 0.00 | 35 | 1009.5 |
| 20260505184929 | 80 | 196 | 3.5 | 7.8 | 0.00 | 0.00 | 0.00 | 36 | 1009.6 |
| 20260505184428 | 79 | 163 | 4.3 | 13.0 | 0.00 | 0.00 | 0.00 | 35 | 1009.6 |
| 20260505183929 | 79 | 165 | 4.3 | 13.0 | 0.00 | 0.00 | 0.00 | 35 | 1009.7 |
| 20260505183426 | 79 | 187 | 4.3 | 10.4 | 0.00 | 0.00 | 0.00 | 35 | 1009.8 |
| 20260505182927 | 78 | 154 | 4.3 | 10.4 | 0.00 | 0.00 | 0.00 | 36 | 1009.8 |
| 20260505182425 | 78 | 173 | 4.3 | 10.4 | 0.00 | 0.00 | 0.00 | 37 | 1009.9 |
| 20260505181925 | 78 | 173 | 5.2 | 11.3 | 0.00 | 0.00 | 0.00 | 35 | 1009.8 |
| 20260505180927 | 78 | 170 | 4.3 | 11.3 | 0.00 | 0.00 | 0.00 | 36 | 1010.1 |
| 20260505180428 | 78 | 201 | 4.3 | 11.3 | 0.00 | 0.00 | 0.00 | 38 | 1010.1 |
| 20260505175419 | 78 | 224 | 4.3 | 11.3 | 0.00 | 0.00 | 0.00 | 38 | 1010.2 |
| 20260505174905 | 78 | 209 | 4.3 | 11.3 | 0.00 | 0.00 | 0.00 | 39 | 1010.3 |
| 20260505174359 | 78 | 184 | 4.3 | 11.3 | 0.00 | 0.00 | 0.00 | 39 | 1010.3 |
| 20260505173854 | 78 | 186 | 5.2 | 13.0 | 0.00 | 0.00 | 0.00 | 38 | 1010.4 |
| 20260505173348 | 78 | 167 | 4.3 | 13.0 | 0.00 | 0.00 | 0.00 | 40 | 1010.3 |
| 20260505172842 | 78 | 163 | 3.5 | 7.8 | 0.00 | 0.00 | 0.00 | 42 | 1010.3 |
| 20260505172336 | 78 | 194 | 2.6 | 7.8 | 0.00 | 0.00 | 0.00 | 40 | 1010.4 |
| 20260505171830 | 78 | 203 | 2.6 | 8.7 | 0.00 | 0.00 | 0.00 | 42 | 1010.4 |
| 20260505171324 | 77 | 160 | 3.5 | 8.7 | 0.00 | 0.00 | 0.00 | 42 | 1010.5 |
| 20260505170311 | 77 | 198 | 4.3 | 7.8 | 0.00 | 0.00 | 0.00 | 39 | 1010.6 |
| 20260505165806 | 77 | 173 | 4.3 | 7.8 | 0.00 | 0.00 | 0.00 | 40 | 1010.7 |
| 20260505165300 | 77 | 169 | 3.5 | 8.7 | 0.00 | 0.00 | 0.00 | 45 | 1010.8 |
| 20260505164754 | 77 | 167 | 3.5 | 9.6 | 0.00 | 0.00 | 0.00 | 45 | 1010.9 |
| 20260505163742 | 77 | 166 | 3.5 | 7.0 | 0.00 | 0.00 | 0.00 | 41 | 1011.0 |
| 20260505162730 | 77 | 190 | 3.5 | 9.6 | 0.00 | 0.00 | 0.00 | 45 | 1011.1 |
| 20260505161718 | 78 | 175 | 2.6 | 6.1 | 0.00 | 0.00 | 0.00 | 43 | 1011.1 |
| 20260505161213 | 79 | 169 | 1.7 | 6.1 | 0.00 | 0.00 | 0.00 | 44 | 1011.1 |
| 20260505160159 | 78 | 132 | 1.7 | 5.2 | 0.00 | 0.00 | 0.00 | 45 | 1011.1 |
| 20260505153123 | 77 | 46 | 1.7 | 7.0 | 0.00 | 0.00 | 0.00 | 46 | 1011.2 |
| 20260505152115 | 77 | 169 | 1.7 | 4.3 | 0.00 | 0.00 | 0.00 | 44 | 1011.2 |
| 20260505151616 | 78 | 299 | 1.7 | 3.5 | 0.00 | 0.00 | 0.00 | 44 | 1011.3 |
| 20260505151116 | 77 | 161 | 1.7 | 3.5 | 0.00 | 0.00 | 0.00 | 44 | 1011.3 |
| 20260505150113 | 76 | 210 | 1.7 | 5.2 | 0.00 | 0.00 | 0.00 | 46 | 1011.2 |
| 20260505140610 | 72 | 80 | 1.7 | 4.3 | 0.00 | 0.00 | 0.00 | 52 | 1011.5 |
| 20260505125039 | 64 | 147 | 0.9 | 1.7 | 0.00 | 0.00 | 0.00 | 65 | 1012.1 |
| 20260505124537 | 63 | 130 | 0.9 | 2.6 | 0.00 | 0.00 | 0.00 | 67 | 1012.1 |
| 20260505124033 | 62 | 167 | 0.9 | 2.6 | 0.00 | 0.00 | 0.00 | 67 | 1012.1 |
| 20260505123034 | 61 | 167 | 0.9 | 2.6 | 0.00 | 0.00 | 0.00 | 68 | 1012.2 |
| 20260505122535 | 61 | 167 | 0.9 | 2.6 | 0.00 | 0.00 | 0.00 | 67 | 1012.2 |
| 20260505122034 | 60 | 180 | 0.9 | 2.6 | 0.00 | 0.00 | 0.00 | 68 | 1012.2 |
| 20260505121529 | 60 | 147 | 0.9 | 3.5 | 0.00 | 0.00 | 0.00 | 70 | 1012.2 |
| 20260505121029 | 60 | 97 | 1.7 | 3.5 | 0.00 | 0.00 | 0.00 | 68 | 1012.1 |
| 20260505120528 | 60 | 168 | 1.7 | 3.5 | 0.00 | 0.00 | 0.00 | 69 | 1012.1 |
| 20260505120030 | 59 | 186 | 0.9 | 3.5 | 0.00 | 0.00 | 0.00 | 69 | 1012.0 |
| 20260505115529 | 59 | 178 | 0.9 | 3.5 | 0.00 | 0.00 | 0.00 | 70 | 1011.9 |
| 20260505115029 | 58 | 173 | 1.7 | 4.3 | 0.00 | 0.00 | 0.00 | 71 | 1011.8 |
| 20260505114528 | 58 | 136 | 1.7 | 4.3 | 0.00 | 0.00 | 0.00 | 70 | 1011.8 |
| 20260505114030 | 58 | 173 | 1.7 | 3.5 | 0.00 | 0.00 | 0.00 | 71 | 1011.8 |
| 20260505113532 | 58 | 173 | 1.7 | 4.3 | 0.00 | 0.00 | 0.00 | 71 | 1011.8 |
| 20260505113026 | 58 | 184 | 1.7 | 4.3 | 0.00 | 0.00 | 0.00 | 71 | 1011.7 |
| 20260505112526 | 58 | 173 | 1.7 | 4.3 | 0.00 | 0.00 | 0.00 | 71 | 1011.7 |
| 20260505112025 | 58 | 175 | 0.9 | 3.5 | 0.00 | 0.00 | 0.00 | 72 | 1011.6 |
| 20260505111525 | 58 | 182 | 0.9 | 3.5 | 0.00 | 0.00 | 0.00 | 72 | 1011.5 |
| 20260505111026 | 58 | 178 | 0.9 | 3.5 | 0.00 | 0.00 | 0.00 | 71 | 1011.4 |
| 20260505101949 | 56 | 144 | 0.0 | 1.7 | 0.00 | 0.00 | 0.00 | 72 | 1010.8 |
| 20260505100937 | 57 | 191 | 0.9 | 2.6 | 0.00 | 0.00 | 0.00 | 72 | 1010.9 |
| 20260505100431 | 57 | 191 | 0.9 | 2.6 | 0.00 | 0.00 | 0.00 | 72 | 1010.8 |
| 20260505095420 | 57 | 191 | 0.0 | 0.9 | 0.00 | 0.00 | 0.00 | 72 | 1010.8 |
| 20260505094406 | 57 | 191 | 0.0 | 1.7 | 0.00 | 0.00 | 0.00 | 71 | 1010.7 |
| 20260505093902 | 57 | 191 | 0.0 | 1.7 | 0.00 | 0.00 | 0.00 | 71 | 1010.7 |
| 20260505093355 | 57 | 191 | 0.0 | 1.7 | 0.00 | 0.00 | 0.00 | 71 | 1010.8 |
| 20260505092849 | 58 | 191 | 0.0 | 1.7 | 0.00 | 0.00 | 0.00 | 71 | 1010.6 |
| 20260505092348 | 58 | 191 | 0.9 | 2.6 | 0.00 | 0.00 | 0.00 | 70 | 1010.7 |
| 20260505091838 | 58 | 191 | 0.9 | 2.6 | 0.00 | 0.00 | 0.00 | 70 | 1010.5 |
| 20260505091331 | 58 | 191 | 0.9 | 1.7 | 0.00 | 0.00 | 0.00 | 70 | 1010.5 |
| 20260505090825 | 58 | 191 | 0.9 | 3.5 | 0.00 | 0.00 | 0.00 | 70 | 1010.5 |
| 20260505090318 | 58 | 191 | 0.9 | 3.5 | 0.00 | 0.00 | 0.00 | 70 | 1010.5 |
| 20260505085813 | 58 | 191 | 0.9 | 3.5 | 0.00 | 0.00 | 0.00 | 70 | 1010.5 |
| 20260505084801 | 58 | 191 | 0.9 | 2.6 | 0.00 | 0.00 | 0.00 | 70 | 1010.5 |
| 20260505083243 | 58 | 191 | 0.9 | 3.5 | 0.00 | 0.00 | 0.00 | 69 | 1010.5 |
| 20260505082736 | 59 | 191 | 0.9 | 3.5 | 0.00 | 0.00 | 0.00 | 69 | 1010.5 |
| 20260505082231 | 59 | 191 | 1.7 | 3.5 | 0.00 | 0.00 | 0.00 | 69 | 1010.5 |
| 20260505081219 | 59 | 191 | 0.9 | 2.6 | 0.00 | 0.00 | 0.00 | 69 | 1010.5 |
| 20260505080712 | 59 | 191 | 0.9 | 2.6 | 0.00 | 0.00 | 0.00 | 68 | 1010.5 |
| 20260505080208 | 59 | 191 | 0.9 | 2.6 | 0.00 | 0.00 | 0.00 | 68 | 1010.4 |
| 20260505075702 | 59 | 191 | 0.9 | 2.6 | 0.00 | 0.00 | 0.00 | 68 | 1010.3 |
| 20260505075155 | 59 | 191 | 0.9 | 2.6 | 0.00 | 0.00 | 0.00 | 68 | 1010.3 |
| 20260505074649 | 60 | 191 | 0.0 | 1.7 | 0.00 | 0.00 | 0.00 | 68 | 1010.2 |
| 20260505073638 | 60 | 191 | 0.9 | 2.6 | 0.00 | 0.00 | 0.00 | 67 | 1010.2 |
| 20260505072634 | 60 | 191 | 0.9 | 2.6 | 0.00 | 0.00 | 0.00 | 67 | 1010.2 |
| 20260505072132 | 60 | 191 | 0.9 | 1.7 | 0.00 | 0.00 | 0.00 | 67 | 1010.2 |
| 20260505071633 | 60 | 191 | 0.9 | 1.7 | 0.00 | 0.00 | 0.00 | 67 | 1010.2 |
| 20260505071133 | 60 | 191 | 0.9 | 1.7 | 0.00 | 0.00 | 0.00 | 67 | 1010.2 |
| 20260505070632 | 60 | 191 | 0.9 | 1.7 | 0.00 | 0.00 | 0.00 | 66 | 1010.2 |
| 20260505070133 | 60 | 191 | 0.9 | 1.7 | 0.00 | 0.00 | 0.00 | 66 | 1010.3 |
| 20260505065131 | 60 | 191 | 0.9 | 1.7 | 0.00 | 0.00 | 0.00 | 66 | 1010.3 |
| 20260505064629 | 60 | 191 | 0.9 | 1.7 | 0.00 | 0.00 | 0.00 | 66 | 1010.3 |
| 20260505064132 | 61 | 191 | 0.0 | 1.7 | 0.00 | 0.00 | 0.00 | 66 | 1010.3 |
| 20260505063632 | 61 | 191 | 0.9 | 1.7 | 0.00 | 0.00 | 0.00 | 65 | 1010.3 |
| 20260505063129 | 61 | 191 | 0.9 | 1.7 | 0.00 | 0.00 | 0.00 | 65 | 1010.3 |
| 20260505062628 | 61 | 191 | 0.0 | 1.7 | 0.00 | 0.00 | 0.00 | 65 | 1010.4 |
| 20260505062125 | 61 | 191 | 0.9 | 3.5 | 0.00 | 0.00 | 0.00 | 64 | 1010.4 |
| 20260505061622 | 62 | 191 | 0.9 | 3.5 | 0.00 | 0.00 | 0.00 | 64 | 1010.3 |
| 20260505061122 | 62 | 183 | 0.9 | 2.6 | 0.00 | 0.00 | 0.00 | 63 | 1010.4 |
| 20260505060622 | 62 | 177 | 0.9 | 1.7 | 0.00 | 0.00 | 0.00 | 63 | 1010.4 |
| 20260505060125 | 62 | 177 | 0.9 | 2.6 | 0.00 | 0.00 | 0.00 | 63 | 1010.4 |
| 20260505055618 | 62 | 177 | 0.9 | 2.6 | 0.00 | 0.00 | 0.00 | 63 | 1010.4 |
| 20260505055112 | 62 | 173 | 1.7 | 2.6 | 0.00 | 0.00 | 0.00 | 62 | 1010.4 |
| 20260505054606 | 62 | 177 | 1.7 | 4.3 | 0.00 | 0.00 | 0.00 | 62 | 1010.5 |
| 20260505054059 | 62 | 185 | 1.7 | 4.3 | 0.00 | 0.00 | 0.00 | 62 | 1010.5 |
| 20260505053554 | 62 | 177 | 0.9 | 4.3 | 0.00 | 0.00 | 0.00 | 62 | 1010.5 |
| 20260505053049 | 62 | 180 | 0.9 | 3.5 | 0.00 | 0.00 | 0.00 | 62 | 1010.5 |
| 20260505052541 | 62 | 200 | 0.9 | 3.5 | 0.00 | 0.00 | 0.00 | 62 | 1010.5 |
| 20260505052041 | 62 | 200 | 1.7 | 3.5 | 0.00 | 0.00 | 0.00 | 62 | 1010.5 |
| 20260505051540 | 62 | 190 | 0.9 | 4.3 | 0.00 | 0.00 | 0.00 | 62 | 1010.5 |
| 20260505051042 | 62 | 179 | 0.9 | 4.3 | 0.00 | 0.00 | 0.00 | 62 | 1010.5 |
| 20260505050540 | 62 | 173 | 0.9 | 2.6 | 0.00 | 0.00 | 0.00 | 62 | 1010.5 |
| 20260505041527 | 62 | 188 | 0.9 | 3.5 | 0.00 | 0.00 | 0.00 | 59 | 1010.2 |
| 20260505040527 | 62 | 179 | 0.9 | 2.6 | 0.00 | 0.00 | 0.00 | 59 | 1010.2 |
| 20260505040027 | 62 | 188 | 0.9 | 2.6 | 0.00 | 0.00 | 0.00 | 59 | 1010.2 |
| 20260505035015 | 62 | 186 | 0.9 | 2.6 | 0.00 | 0.00 | 0.00 | 58 | 1010.1 |
| 20260505034509 | 62 | 188 | 0.9 | 2.6 | 0.00 | 0.00 | 0.00 | 58 | 1010.1 |
| 20260505034004 | 62 | 185 | 1.7 | 4.3 | 0.00 | 0.00 | 0.00 | 57 | 1010.1 |
| 20260505033456 | 62 | 192 | 1.7 | 4.3 | 0.00 | 0.00 | 0.00 | 57 | 1010.1 |
| 20260505032951 | 62 | 175 | 0.9 | 2.6 | 0.00 | 0.00 | 0.00 | 57 | 1010.1 |
| 20260505032445 | 62 | 175 | 1.7 | 2.6 | 0.00 | 0.00 | 0.00 | 56 | 1010.1 |
| 20260505031940 | 63 | 178 | 1.7 | 3.5 | 0.00 | 0.00 | 0.00 | 56 | 1010.1 |
| 20260505031433 | 63 | 188 | 1.7 | 3.5 | 0.00 | 0.00 | 0.00 | 56 | 1010.1 |
| 20260505030927 | 63 | 184 | 1.7 | 2.6 | 0.00 | 0.00 | 0.00 | 56 | 1010.1 |
| 20260505025914 | 63 | 184 | 1.7 | 3.5 | 0.00 | 0.00 | 0.00 | 56 | 1010.1 |
| 20260505025410 | 62 | 182 | 0.9 | 3.5 | 0.00 | 0.00 | 0.00 | 56 | 1010.2 |
| 20260505024903 | 62 | 180 | 0.9 | 3.5 | 0.00 | 0.00 | 0.00 | 57 | 1010.3 |
| 20260505024357 | 62 | 175 | 0.9 | 1.7 | 0.00 | 0.00 | 0.00 | 57 | 1010.3 |
| 20260505023345 | 62 | 175 | 0.0 | 1.7 | 0.00 | 0.00 | 0.00 | 58 | 1010.3 |
| 20260505022838 | 61 | 175 | 0.0 | 1.7 | 0.00 | 0.00 | 0.00 | 59 | 1010.3 |
| 20260505022333 | 62 | 175 | 0.9 | 1.7 | 0.00 | 0.00 | 0.00 | 57 | 1010.2 |
| 20260505021827 | 62 | 175 | 0.9 | 1.7 | 0.00 | 0.00 | 0.00 | 57 | 1010.2 |
| 20260505021327 | 62 | 175 | 0.9 | 2.6 | 0.00 | 0.00 | 0.00 | 56 | 1010.3 |
| 20260505020309 | 63 | 175 | 0.9 | 2.6 | 0.00 | 0.00 | 0.00 | 55 | 1010.2 |
| 20260505015804 | 63 | 175 | 0.9 | 2.6 | 0.00 | 0.00 | 0.00 | 55 | 1010.2 |
| 20260505015258 | 63 | 175 | 0.9 | 1.7 | 0.00 | 0.00 | 0.00 | 54 | 1010.3 |
| 20260505014752 | 63 | 175 | 0.9 | 1.7 | 0.00 | 0.00 | 0.00 | 54 | 1010.3 |
| 20260505014252 | 63 | 175 | 0.9 | 1.7 | 0.00 | 0.00 | 0.00 | 54 | 1010.2 |
| 20260505013752 | 63 | 175 | 0.9 | 1.7 | 0.00 | 0.00 | 0.00 | 54 | 1010.2 |
| 20260505013253 | 64 | 175 | 0.9 | 2.6 | 0.00 | 0.00 | 0.00 | 54 | 1010.2 |
| 20260505012753 | 64 | 175 | 0.9 | 2.6 | 0.00 | 0.00 | 0.00 | 53 | 1010.1 |
| 20260505012251 | 64 | 175 | 0.9 | 1.7 | 0.00 | 0.00 | 0.00 | 53 | 1010.0 |
| 20260505011750 | 64 | 175 | 0.0 | 1.7 | 0.00 | 0.00 | 0.00 | 52 | 1009.9 |
| 20260505011251 | 65 | 175 | 0.0 | 1.7 | 0.00 | 0.00 | 0.00 | 51 | 1009.9 |
| 20260505010748 | 65 | 175 | 0.9 | 2.6 | 0.00 | 0.00 | 0.00 | 50 | 1009.8 |
| 20260505010247 | 66 | 175 | 0.9 | 2.6 | 0.00 | 0.00 | 0.00 | 49 | 1009.7 |
| 20260505005747 | 67 | 175 | 1.7 | 3.5 | 0.00 | 0.00 | 0.00 | 48 | 1009.6 |
| 20260505005247 | 67 | 175 | 1.7 | 4.3 | 0.00 | 0.00 | 0.00 | 47 | 1009.6 |
| 20260505004744 | 67 | 173 | 1.7 | 4.3 | 0.00 | 0.00 | 0.00 | 46 | 1009.6 |
| 20260505004245 | 67 | 165 | 2.6 | 5.2 | 0.00 | 0.00 | 0.00 | 46 | 1009.6 |
| 20260505003745 | 67 | 179 | 2.6 | 5.2 | 0.00 | 0.00 | 0.00 | 46 | 1009.6 |
| 20260505003244 | 67 | 173 | 2.6 | 5.2 | 0.00 | 0.00 | 0.00 | 45 | 1009.6 |
| 20260505002743 | 67 | 180 | 2.6 | 5.2 | 0.00 | 0.00 | 0.00 | 45 | 1009.6 |
| 20260505002243 | 67 | 200 | 2.6 | 4.3 | 0.00 | 0.00 | 0.00 | 45 | 1009.6 |
| 20260505001736 | 67 | 165 | 2.6 | 5.2 | 0.00 | 0.00 | 0.00 | 45 | 1009.6 |
| 20260505000725 | 68 | 184 | 2.6 | 5.2 | 0.00 | 0.00 | 0.00 | 45 | 1009.5 |
| 20260505000219 | 68 | 191 | 2.6 | 5.2 | 0.00 | 0.00 | 0.00 | 45 | 1009.4 |
| 20260504235713 | 68 | 173 | 2.6 | 6.1 | 0.00 | 0.00 | 0.00 | 44 | 1009.4 |
| 20260504235208 | 68 | 192 | 2.6 | 6.1 | 0.00 | 0.00 | 0.00 | 43 | 1009.4 |
| 20260504234708 | 69 | 184 | 3.5 | 6.1 | 0.00 | 0.00 | 0.00 | 43 | 1009.3 |
| 20260504234209 | 69 | 179 | 3.5 | 6.1 | 0.00 | 0.00 | 0.00 | 43 | 1009.3 |
| 20260504232707 | 70 | 178 | 2.6 | 6.1 | 0.00 | 0.00 | 0.00 | 41 | 1009.3 |
| 20260504231708 | 70 | 155 | 2.6 | 7.0 | 0.00 | 0.00 | 0.00 | 41 | 1009.3 |
| 20260504231209 | 71 | 178 | 2.6 | 7.0 | 0.00 | 0.00 | 0.00 | 41 | 1009.4 |